USA 153

Last updated on Mon Oct 14 2024 00:02:37 GMT+0000 (Coordinated Universal Time)

1 26575U 00065A 24287.54665478 -.00000320 00000+0 00000+0 0 9998 2 26575 10.5607 40.1449 0002662 216.5413 97.1288 1.00267902 26792
UTC large
Height (km)
Speed (km/s)
/
Latitude / Longitude
Inclination (degrees)
Orbital Period (minutes)
Azimuth
Elevation
Range (km)
Doppler Factor

Next 0 passes for location: London (51.5072 / 0.1276)

Sorry there are no passes over London.